Theta_e
308 310 317 318 319 318 318 322 327 327 328 328 331 329 327 331 331 330 330 330 331 331 332 330 328 326 323 323 326 325 324 327 328 328 328 330 330 330 330 329 328 328 328
310 317 317 317 317 317 320 325 327 327 328 328 330 329 331 330 330 330 331 330 329 332 331 330 328 325 324 327 325 325 326 328 329 329 329 330 331 330 330 329 327 328 328
314 317 317 317 317 321 324 325 327 326 327 328 332 332 330 329 328 325 329 330 331 331 330 326 325 323 328 328 329 329 328 329 329 330 329 330 330 330 329 329 328 329 328
316 317 317 320 324 325 326 326 325 324 324 327 328 331 329 329 329 328 328 329 328 328 325 325 327 328 330 331 329 331 330 330 330 329 329 329 330 328 328 328 329 327 325
316 317 317 321 322 322 322 324 325 325 323 325 327 330 329 329 329 328 328 327 328 327 331 332 332 330 334 332 332 329 329 329 329 329 327 328 329 329 327 326 326 325 324
317 318 321 322 322 322 322 323 326 325 323 325 326 326 325 323 325 325 326 327 327 327 328 328 328 328 328 328 329 329 327 327 327 326 326 327 327 327 329 326 325 325 324
319 321 322 321 322 322 323 324 325 325 325 324 326 324 324 321 324 323 324 325 324 325 326 325 326 326 326 328 328 326 325 325 326 325 326 326 326 326 325 327 324 323 321
319 320 320 320 319 321 323 323 325 326 325 324 323 326 326 325 325 325 325 326 326 326 326 327 326 326 327 327 327 327 327 327 326 326 326 326 326 327 326 326 327 322 322
316 316 315 315 315 315 316 322 323 324 324 324 323 324 326 324 324 324 325 325 324 323 323 323 324 324 326 325 326 325 325 325 327 327 326 325 325 327 327 326 327 326 323
311 312 314 314 315 315 315 314 315 321 323 323 323 325 324 324 323 323 322 324 324 323 323 322 323 324 325 324 324 324 324 325 326 325 326 325 324 325 327 327 326 325 320
309 309 309 309 308 309 310 312 314 315 316 316 317 322 324 324 324 325 325 325 325 325 324 324 323 325 325 325 324 326 326 325 324 325 326 326 325 326 326 326 324 318 314
308 308 308 308 308 308 308 308 308 309 309 311 315 317 318 319 320 321 321 322 321 321 322 324 325 325 325 325 323 325 326 325 325 326 327 327 327 327 325 324 319 315 316
306 306 306 306 306 306 306 307 307 307 307 307 308 308 310 312 314 315 316 318 319 321 322 322 322 323 324 324 324 324 324 324 325 327 326 326 325 324 324 321 316 317 313
300 299 299 299 299 299 299 300 301 302 304 305 306 307 307 307 308 308 310 312 313 314 315 315 316 317 317 320 320 322 324 324 323 326 326 325 324 323 322 320 319 314 311
300 298 298 298 298 299 299 299 299 299 299 299 299 300 301 303 305 306 307 307 308 309 311 312 313 314 316 316 317 319 322 324 324 324 325 324 322 322 321 319 312 311 312
299 298 298 298 298 298 298 298 298 298 298 299 299 299 299 300 300 299 299 302 305 306 307 308 309 311 313 318 318 318 319 323 323 323 324 323 322 320 317 311 313 312 311
298 297 297 298 298 297 297 297 298 297 297 297 298 298 299 299 299 300 300 300 300 299 302 305 307 308 308 310 315 316 317 319 320 321 321 321 319 316 311 313 312 310 309
298 297 297 297 297 297 297 297 297 297 297 297 297 298 298 298 298 298 299 299 300 300 300 300 303 306 307 308 310 313 315 316 318 319 319 319 318 311 310 311 312 310 309
297 297 297 297 296 296 297 297 297 297 297 296 297 297 297 297 297 296 296 297 298 298 300 300 300 300 304 307 308 309 312 313 313 315 316 313 314 311 312 309 309 309 308
297 297 297 297 297 297 296 296 296 296 296 296 296 297 297 297 297 297 296 296 295 297 298 298 300 300 300 302 306 308 309 310 312 312 311 312 310 312 314 308 306 307 308
296 296 296 295 295 295 295 295 295 295 295 296 296 296 296 296 296 296 297 297 296 295 297 298 298 299 300 300 301 306 307 308 310 311 311 309 310 307 307 307 305 307 306
296 295 294 294 294 293 293 293 293 293 294 294 294 295 295 294 294 294 295 296 296 295 297 298 298 299 299 300 301 302 306 306 307 310 311 310 308 307 306 305 305 304 303
295 294 293 293 292 292 291 290 290 290 290 289 290 290 290 291 292 293 293 293 293 294 295 297 298 300 300 300 301 301 304 306 306 307 308 309 308 307 306 304 302 301 302
294 294 293 292 292 291 291 290 290 290 289 288 289 288 288 288 289 290 290 290 292 291 293 295 297 299 300 301 301 302 301 305 306 305 305 306 306 305 304 303 302 300 300
294 294 293 292 291 291 290 291 291 290 290 288 288 288 288 288 288 289 288 289 290 291 291 292 293 295 299 301 301 302 302 303 304 305 303 302 301 303 302 301 301 302 299
293 293 293 292 291 290 290 290 291 289 289 289 288 288 287 287 287 288 289 291 290 292 294 294 293 295 298 300 301 301 302 303 303 303 303 302 301 301 303 302 302 301 299
Wind_Speed
30 26 23 24 23 29 28 26 26 24 25 29 31 37 43 43 46 43 42 39 34 35 32 30 30 30 28 27 24 23 22 22 18 16 18 18 14 16 18 17 19 20 20
25 20 20 24 28 27 26 26 24 20 20 24 30 36 41 48 36 34 39 39 38 36 34 32 33 31 30 27 25 25 26 22 20 20 17 17 19 20 22 21 19 21 19
21 17 20 23 25 22 20 23 22 17 17 20 25 40 46 42 35 32 36 40 39 37 34 35 35 32 30 29 28 26 25 25 24 23 19 11 12 21 24 24 22 24 21
23 17 17 15 15 15 19 17 16 14 14 18 9 42 43 40 38 38 41 42 40 37 34 32 31 32 32 31 29 28 28 25 23 25 27 26 12 13 11 24 27 23 21
18 18 15 12 7 8 13 16 20 21 17 23 11 25 26 24 32 34 36 35 35 36 33 30 32 33 34 31 32 29 22 22 23 22 21 22 25 28 24 17 25 23 22
17 12 13 7 2 6 7 16 18 13 6 19 18 18 17 14 13 17 23 24 23 25 29 28 29 32 32 30 33 23 18 15 17 19 23 25 23 27 28 24 21 26 22
14 14 9 8 6 17 19 10 16 15 16 25 17 18 17 16 16 19 17 19 21 23 22 25 25 31 29 32 23 22 21 25 25 24 28 24 25 25 19 29 22 23 23
19 18 14 7 11 7 13 21 15 20 30 21 22 19 22 19 11 15 23 24 25 23 17 22 28 34 29 26 27 27 29 33 32 31 29 29 27 26 30 22 34 25 22
28 22 17 13 12 13 14 10 16 21 15 12 9 14 20 8 14 13 21 24 20 24 26 29 32 30 30 32 37 30 33 39 39 41 39 34 34 25 28 28 31 26 23
30 25 21 20 17 16 15 12 12 6 2 4 5 1 19 17 14 21 21 28 39 35 33 44 36 33 35 38 42 43 43 41 41 45 48 36 30 30 28 31 29 27 26
24 24 24 22 22 22 22 20 16 11 7 2 3 6 10 13 18 22 23 23 27 36 37 37 39 40 34 32 44 44 46 46 47 43 35 37 36 35 32 32 28 26 27
26 23 20 19 21 21 19 18 16 15 13 11 6 1 6 10 14 16 18 21 22 22 26 30 32 35 36 34 33 37 39 41 40 39 38 38 34 34 30 28 28 27 26
19 17 16 17 16 16 15 14 13 12 11 10 8 5 2 3 7 10 14 17 19 20 23 22 24 26 29 32 34 35 36 34 32 34 35 34 32 28 31 29 28 27 26
17 16 16 16 15 15 15 14 13 13 13 12 12 11 10 10 11 12 14 16 17 19 21 21 23 24 27 30 29 31 32 32 29 28 30 33 32 29 29 29 28 27 26
15 16 15 15 14 14 14 13 14 15 16 16 16 18 19 19 20 20 21 21 20 22 23 24 25 25 26 28 29 30 31 33 31 31 32 30 29 28 28 29 27 26 25
10 14 15 15 18 19 19 19 19 19 19 19 18 19 20 21 23 25 27 28 27 26 25 25 26 28 29 28 29 29 31 34 34 36 36 33 33 32 31 29 27 26 25
12 14 14 17 16 17 19 20 21 21 22 22 21 21 21 21 22 25 28 30 31 32 31 30 29 30 30 29 28 29 31 35 36 37 39 36 34 32 33 30 27 26 24
13 15 17 16 18 21 23 25 25 26 27 28 29 30 31 33 34 32 28 25 27 32 35 36 34 33 32 28 28 29 32 36 37 40 40 39 37 34 33 32 28 25 26
13 15 18 20 21 23 25 26 26 27 27 27 28 30 32 33 33 32 33 34 32 29 29 34 37 38 37 31 27 26 32 36 35 38 39 36 36 35 32 34 29 26 25
21 22 20 20 21 21 23 24 25 26 28 28 28 29 30 31 34 36 37 37 35 33 32 32 31 38 40 37 33 27 30 35 34 35 36 39 37 35 39 36 33 29 27
17 17 18 20 21 23 25 25 24 24 26 26 28 29 31 33 34 36 37 39 38 33 33 35 33 30 37 37 36 32 30 35 35 32 35 39 37 35 35 34 32 28 23
14 15 18 19 19 19 20 19 20 21 21 22 23 24 28 33 37 37 37 36 37 38 37 36 36 31 29 35 34 33 31 32 36 36 32 36 38 37 37 34 29 27 27
13 14 16 18 17 18 17 19 21 19 23 27 29 31 33 33 32 35 37 38 37 35 34 35 36 33 29 29 32 29 32 31 33 36 35 35 38 39 37 33 28 30 31
12 14 15 16 17 18 18 16 21 20 26 25 27 30 32 34 33 34 34 35 38 37 36 37 35 34 33 32 29 29 30 30 29 32 37 37 38 38 35 32 32 34 31
11 12 15 17 19 19 20 18 21 23 25 25 28 29 30 32 35 35 35 35 36 36 38 37 38 38 35 30 31 31 29 29 30 34 35 36 33 36 38 35 34 32 30
12 14 16 18 17 19 22 20 20 21 24 25 25 27 26 30 32 35 39 37 36 36 34 33 34 38 33 36 31 29 26 25 26 35 37 39 38 41 40 38 38 36 32
Wind_Direction
263 263 245 254 257 266 276 260 256 262 272 287 262 226 215 211 204 203 215 204 209 207 207 210 206 205 207 210 212 216 216 216 213 216 219 219 234 219 234 243 256 262 266
256 231 246 263 268 269 265 250 252 254 273 284 246 221 217 201 197 200 205 202 208 209 213 216 211 211 212 214 212 210 212 212 209 212 215 223 227 228 242 248 254 257 267
223 235 256 272 277 266 252 244 244 252 278 279 204 200 199 194 186 190 205 204 207 211 218 216 214 212 214 211 207 210 211 209 211 216 214 212 219 222 235 240 246 250 257
241 247 259 270 257 250 244 240 235 252 282 235 192 181 180 183 181 195 203 211 215 219 218 214 214 216 215 216 216 213 213 211 217 215 219 228 227 206 221 231 227 232 242
232 235 243 220 240 266 266 250 245 247 277 236 203 160 164 181 190 197 200 203 207 206 211 213 216 213 218 221 227 225 232 235 233 237 241 238 239 236 244 220 215 220 232
218 214 197 180 115 3 298 246 214 228 263 196 207 190 181 168 174 187 195 202 206 212 217 219 224 226 228 232 233 221 215 231 241 247 249 248 247 245 234 232 227 226 229
215 180 175 134 38 34 24 107 204 217 201 191 170 175 169 181 192 208 206 201 206 211 215 224 227 228 230 233 232 237 247 243 247 245 248 249 251 245 254 251 220 220 223
101 77 51 32 17 14 24 53 75 179 158 186 193 182 171 170 183 189 203 212 219 226 225 231 238 238 227 231 239 242 246 247 248 243 244 247 247 257 258 251 232 224 225
77 65 58 43 26 23 35 61 68 140 172 180 203 239 212 226 234 237 235 229 227 246 252 259 255 262 248 249 246 253 265 260 253 251 247 248 255 255 248 241 237 232 234
79 77 71 63 59 56 59 63 69 98 200 242 292 284 219 237 229 254 262 243 241 260 242 256 256 264 261 256 259 263 266 257 254 258 245 250 257 254 242 232 237 240 238
81 77 76 71 67 66 65 66 68 74 80 101 146 181 219 250 254 259 264 268 260 259 258 244 249 266 265 255 260 265 259 253 262 266 256 255 261 246 237 236 234 234 233
81 78 75 66 59 58 59 59 60 64 63 61 57 349 260 255 258 263 266 266 266 260 254 254 255 259 262 255 254 261 262 258 259 256 255 258 243 230 232 229 231 232 238
70 64 54 46 38 33 29 25 21 22 20 23 32 40 10 267 258 258 262 265 270 270 270 268 265 260 258 258 254 256 254 254 252 252 251 241 228 231 225 229 232 236 233
55 42 32 24 15 8 360 353 346 342 336 332 330 325 315 309 298 291 283 277 273 272 270 270 269 268 265 261 257 256 252 248 242 241 242 233 234 231 236 233 233 232 233
36 29 27 21 12 7 360 355 348 344 338 327 317 311 304 296 290 286 282 281 278 277 278 278 274 267 267 263 260 256 252 251 246 237 236 232 234 238 236 232 226 233 237
25 19 14 8 5 360 352 351 347 344 336 330 325 315 307 303 299 292 287 284 281 279 278 277 279 277 268 264 264 259 253 250 246 241 239 235 232 230 226 223 230 235 239
359 357 358 4 352 346 347 345 350 344 339 341 337 328 321 314 304 298 294 289 284 280 276 276 276 278 277 272 266 264 260 254 247 240 240 238 227 227 221 224 227 231 232
347 354 357 354 350 348 339 338 340 337 337 336 333 331 329 325 324 322 317 305 294 288 285 279 276 273 270 273 271 265 268 262 254 247 238 233 228 225 228 224 225 226 231
350 348 345 343 338 333 329 326 326 327 327 326 326 327 327 326 324 320 317 316 314 307 289 280 278 272 270 269 267 264 264 270 261 254 248 232 224 219 233 232 226 225 231
329 330 329 325 316 309 308 311 312 314 314 317 319 319 321 318 318 318 318 316 315 310 311 303 288 277 271 264 263 259 260 259 263 256 246 232 222 224 227 229 227 228 230
310 315 312 311 314 313 311 310 309 309 313 315 315 316 318 317 315 312 312 314 314 311 306 302 303 290 270 267 258 260 260 256 254 256 248 235 228 230 228 233 229 237 236
306 303 301 303 304 308 311 301 302 306 311 312 311 313 313 316 317 316 313 313 312 311 307 300 302 297 277 272 266 253 254 257 256 250 251 237 231 231 230 229 230 223 220
296 299 303 306 311 317 318 300 319 309 312 307 314 317 314 317 318 317 313 313 313 310 301 297 297 290 283 272 269 256 248 255 254 254 247 238 232 232 231 228 226 219 215
282 288 295 306 313 318 324 311 321 317 319 317 312 317 320 322 321 318 315 311 307 306 301 298 290 287 278 278 266 259 249 251 250 255 250 245 236 227 225 224 219 221 221
281 289 302 313 321 322 330 320 316 318 318 319 328 332 332 328 322 317 314 313 309 305 299 295 287 277 280 272 270 267 254 251 244 244 244 238 232 220 215 215 215 225 217
292 299 308 313 319 321 324 323 318 320 326 327 332 335 328 328 326 319 323 323 314 319 309 299 285 270 267 273 269 267 265 256 254 238 238 234 231 222 216 217 217 219 218